Location: Podia
(1.5569°N, 32.3469°E)
Time: 12:35:09
(UTC+00:00)

A-11 Canister half - Visible Passes

Search period start: 26 September 2020 00:00
Search period end: 06 October 2020 00:00
Orbit: 1527 x 1682 km, 47.3° (Epoch: 25 September)

Date Brightness Start Highest point End Pass type
(mag) Time Alt. Az. Time Alt. Az. Time Alt. Az.
26 Sep 8.8 17:25:35 10° SSW 17:34:56 68° SE 17:37:02 54° ENE visible
26 Sep 10.9 19:32:45 10° W 19:35:26 17° W 19:35:26 17° W visible
27 Sep 8.9 17:03:59 10° SSW 17:13:18 63° SE 17:17:36 35° ENE visible
27 Sep 10.5 19:10:48 10° W 19:15:59 24° WNW 19:15:59 24° WNW visible
28 Sep 9.0 16:42:24 10° SSW 16:51:40 59° SE 16:58:11 21° ENE visible
28 Sep 10.3 18:48:52 10° WSW 18:56:30 28° NW 18:56:35 28° NW visible
29 Sep 9.1 16:20:50 10° SSW 16:30:02 55° SE 16:38:48 11° NE visible
29 Sep 10.2 18:26:58 10° WSW 18:34:51 31° NW 18:37:11 27° NNW visible
30 Sep 10.9 03:07:14 10° N 03:15:18 28° NE 03:23:28 10° ESE visible
30 Sep 9.2 15:59:17 10° SSW 16:08:24 51° SE 16:17:18 10° ENE visible
30 Sep 10.2 18:05:05 10° WSW 18:13:12 33° NW 18:17:49 22° N visible
01 Oct 10.9 02:45:49 10° N 02:53:35 26° NE 03:01:28 10° E visible
01 Oct 10.1 17:43:14 10° WSW 17:51:32 36° NW 17:58:23 15° N visible
02 Oct 11.0 02:24:26 10° N 02:31:53 24° NE 02:39:27 10° E visible
02 Oct 10.0 17:21:24 10° WSW 17:29:53 38° NW 17:38:19 10° NNE visible
03 Oct 11.0 02:03:04 10° N 02:10:11 22° NE 02:17:23 10° E visible
03 Oct 10.0 16:59:34 10° WSW 17:08:15 41° NW 17:16:49 10° NNE visible
04 Oct 11.0 01:41:45 10° N 01:48:29 20° NE 01:55:17 10° E visible
04 Oct 9.9 16:37:46 10° WSW 16:46:36 44° NW 16:55:19 10° NNE visible
05 Oct 11.0 01:20:27 10° N 01:26:45 19° NE 01:33:08 10° E visible
05 Oct 9.9 16:15:59 10° WSW 16:24:58 48° NW 16:33:48 10° NNE visible
